Powrót do katalogu

STARLINK-31079

AktywnyŁącznośćVLEO
NORAD 58598·PAYLOAD·🇺🇸 United States

Wystrzelony Dec 19, 2023 z Cape Canaveral Space Force Station

Loading…

Następne Przeloty (najbliższe 24 godziny)

TLE

ŚwieżeSource: CelesTrak SupGP

Epoka: Sep 14, 2026, 22:40 UTC

1 58598C 23200K   26257.94493056  .00297320  00000+0  96814-3 0  2574
2 58598  42.9674  90.8904 0031562 272.0562 165.4199 15.88666770    10

Śledź STARLINK-31079 w czasie rzeczywistym z AllMySat

Download on the App Store